Location: Brompton
(51.4000°N, 0.5333°E)
Time: 08:39:16
(UTC+00:00)

Cosmos 2278 Rocket - Pass Details

Date: 11 May 2021
Orbit: 842 x 845 km, 71.0° (Epoch: 12 June)

Event Time Altitude Azimuth Distance (km) Brightness Sun altitude
Rises 22:00:56 0° 218° (SW) 3,388 5.1 -16.2°
Reaches altitude 10° 22:03:23 10° 221° (SW) 2,457 4.4 -16.4°
Maximum altitude 22:09:00 66° 304° (WNW) 918 2.6 -16.8°
Drops below altitude 10° 22:14:39 10° 27° (NNE) 2,472 5.1 -17.1°
Sets 22:17:08 0° 30° (NNE) 3,411 5.9 -17.3°
